PAVC

Details ICAO PAVC (KVC)
Name KING COVE
Region USA (Alaska)
Timezone America/Nome (UTC-8.0)
Plans Departing 2
Arriving 4
Stats Elevation 155 ft / 47 m (AMSL)
Location 55.116300° -162.266000°
Runways 1
Magnetic Variation 10.612° E
Sunrise 2019-05-20 14:33:47 UTC / 2019-05-20 06:33:47 Local
Sunset 2019-05-21 07:00:16 UTC / 2019-05-20 23:00:16 Local
Advertisement - Login to hide

Runways

ID Width Length Bearing (true/mag) Surface Threshold Overrun Markings Lighting
07 115 ft / 35 m 3,350 ft / 1,021 m 84.99° / 74.38° GRAVEL 0 ft / 0 m 0 ft / 0 m VISUAL
25 115 ft / 35 m 3,350 ft / 1,021 m 265.01° / 254.39° GRAVEL 0 ft / 0 m 0 ft / 0 m VISUAL

Map

Weather


0- 5 10 15 20 25 30 35+ Temperature / °C

Clouds and Precipitation
Forecast for 2019-05-20 18:00 UTC. Updated 2 hours ago

Ground ~20,000 ft ~40,000 ft Winds

METAR

PAVC 201656Z AUTO 25008KT 10SM BKN026 OVC035 06/02 A2972 RMK AO2 SLP070 T00560022

TAF

Not found

Frequencies

Recorded 118.32 MHz ASOS
Unicom 122.90 MHz CTAF
Warning: Do not use this data for real-world aviation or navigation. No guarantee of current accuracy is given.